Regional Weather Roundup
Issued by NWS Goodland, KS

Home | Current Version | Previous Version | Graphics & Text | Print | Product List | Glossary On
Versions: 1 2 3 4 5 6 7 8 9 10 11 12 13 14 15 16 17 18 19 20 21 22 23 24 25 26 27 28 29 30 31 32 33 34 35 36 37 38 39 40 41 42 43 44 45 46 47 48 49 50
000
ASUS43 KGLD 220308
RWRGLD

GOODLAND FORECAST AREA HOURLY WEATHER ROUNDUP
NATIONAL WEATHER SERVICE GOODLAND KS
800 PM MST SUN DEC 21 2014

...OFFICIAL OBSERVATIONS...

CITY           SKY/WX    TMP DP  RH WIND       PRES   REMARKS
GOODLAND KS    CLOUDY    42  34  73 W14       29.54S
HILL CITY KS   CLOUDY    42  37  82 S12G18    29.55F
IMPERIAL NEB   MOCLDY    35  30  82 W3        29.51R
MCCOOK NEB     CLOUDY    38  34  85 CALM      29.51F
AKRON CO       CLOUDY    39  34  82 N13       29.56R
BURLINGTON CO  CLOUDY    43  34  70 W21       29.57S
LIMON CO       LGT RAIN  37  34  89 N5        29.63R
$$

...UNOFFICIAL OBSERVATIONS...

CITY           SKY/WX    TMP DP  RH WIND       PRES   REMARKS
COLBY KS       MOCLDY    37  37 100 SW9       29.53S
GOVE KS          N/A     37  32  82 MISG        N/A
NORTON KS      MOCLDY    37  34  87 SE10      29.52F
TRIBUNE KS     MOCLDY    39  34  81 SW3       29.58S
KIT CARSON CO    N/A     42  36  78 MISG        N/A
YUMA CO          N/A     39  30  71 W16         N/A
$$



USA.gov is the U.S. government's official web portal to all federal, state and local government web resources and services.